Location: Cella
(44.7333°N, 10.5667°E)
Time: 15:02:40
(UTC+00:00)

Sich 1 - Pass Details

Date: 03 March 2021
Orbit: 593 x 626 km, 82.5° (Epoch: 18 April)

Event Time Altitude Azimuth Distance (km) Brightness Sun altitude
Rises 17:26:50 0° 190° (S) 2,870 6.7 -4.1°
Reaches altitude 10° 17:29:03 10° 191° (S) 1,975 5.9 -4.5°
Maximum altitude 17:33:25 80° 278° (W) 636 3.3 -5.3°
Drops below altitude 10° 17:37:53 10° 7° (N) 2,006 5.6 -6.1°
Sets 17:40:08 0° 8° (N) 2,920 6.4 -6.5°
